FENGYUN 1C DEB

Satellite information

Favourite Embed

Satellite Type and Status

DEBRISIN ORBIT

Key statistics

Satellite FENGYUN 1C DEB at a glance.

Uptime

9715

Days in orbit

Revolutions

≈ 14.1

Per day

Orbit

SSO

Sun Synchronous Orbit

Inclination

98.9

Latest

Satellite identification and parameters

Extended collection of information and parameters for FENGYUN 1C DEB.

Object identification

Identified? True

Debris? True

Object name: FENGYUN 1C DEB

International designator: 1999-025LM

Object number (NORAD): 29987

Object ID (CCSDS): 29987

Country: PEOPLES REPUBLIC OF CHINA (PRC)

Current information (Y/N): Y

RCS size: SMALL

Orbital parameters

Period: 101.8 minutes

Inclination: 98.8973 deg

SMA: 7222.021 km

Apoapsis: 901.336 km

Periapsis: 786.436 km

RAAN: 238.2417 deg

Eccentricy: 0.00795481

Argument of periapsis: 235.0227 deg

Mean anomaly: 246.8383 deg

Mean motion: 14.1453815 rev/day

Mean motion (dot): 0.0000734 rev/day2

B* drag term: 0.0037300487 1/REarth

Two-line elements (TLE)

Creation date: Dec. 12, 2025, 10:14 a.m.

Reference frame: TEME

Reference center: EARTH

Epoch: Dec. 12, 2025, 6:08 a.m. UTC

TLE line 0: 0 FENGYUN 1C DEB

TLE line 1: 1 29987U 99025LM 25346.25568013 .00007340 00000-0 37300-2 0 9999

TLE line 2: 2 29987 98.8973 238.2417 0079548 235.0227 246.8383 14.14538150963668

Live tracking on map

Real-time ground track for satellite FENGYUN 1C DEB.

In-orbit conjunctions

A list of the most updated potential collisions computed for object FENGYUN 1C DEB.

Target Orbit TCA Probability of collision Miss distance Type
FENGYUN 1C DEB SSO 2025-07-05 23:15:07 0.0001375192 261.0 (m) DEBRIS
CZ-4 R/B SSO 2024-12-23 08:20:13 0.0001131818 212.0 (m) ROCKET BODY
CZ-6A DEB LEO 2024-11-12 13:16:35 0.0002376278 673.0 (m) DEBRIS
CZ-6A DEB LEO 2024-10-20 12:18:00 0.0001568819 257.0 (m) DEBRIS

Associated space launch

Chinese polar orbiting meteorological satellite

FENGYUN 1C DEB was lifted into orbit during the mission ‘Long March 4B | Feng Yun 1C’, on board a Long March 4B space rocket.

The launch took place on May 10, 1999, 1:33 a.m. from Launch Complex 7.

For more information about the launch, click the button.

Launch to space Long March 4B | Feng Yun 1C
Long March 4B | Feng Yun 1C

Agency: N/A

Status: Launch Successful

Launch date: May 10, 1999, 1:33 a.m. UTC

Rocket: Long March 4B

Launch pad: Launch Complex 7

Location: Taiyuan Satellite Launch Center, People's Republic of China

...

Latest news about this satellite

There are no fresh news available about this satellite. Check back as we update our databases every day.


Newsletter sign-up

Weekly statistics, charts and insights to help you stay on top of the space industry.